Time,TemperatureF,DewpointF,PressureIn,WindDirection,WindDirectionDegrees,WindSpeedMPH,WindSpeedGustMPH,Humidity,HourlyPrecipIn,Conditions,Clouds,dailyrainin,SoftwareType,DateUTC
2013-03-06 00:02:00,60.5,59.0,30.04,SE,127,1.0,6.0,94,0.00,,,0.00,weatherlink.com 1.10,2013-03-06 05:02:00,
2013-03-06 00:32:00,60.9,59.0,30.03,SSW,195,1.0,7.0,94,0.00,,,0.00,weatherlink.com 1.10,2013-03-06 05:32:00,
2013-03-06 00:47:00,60.9,59.0,30.02,SW,231,1.0,5.0,94,0.00,,,0.00,weatherlink.com 1.10,2013-03-06 05:47:00,
2013-03-06 01:02:00,60.6,59.0,30.02,WSW,256,2.0,6.0,94,0.00,,,0.00,weatherlink.com 1.10,2013-03-06 06:02:00,
2013-03-06 01:17:00,60.7,59.0,30.01,SSW,212,1.0,5.0,95,0.00,,,0.00,weatherlink.com 1.10,2013-03-06 06:17:00,
2013-03-06 01:32:00,61.1,60.0,30.01,SW,215,3.0,6.0,95,0.00,,,0.00,weatherlink.com 1.10,2013-03-06 06:32:00,
2013-03-06 01:47:00,61.3,60.0,30.00,SW,229,1.0,5.0,94,0.00,,,0.00,weatherlink.com 1.10,2013-03-06 06:47:00,
2013-03-06 02:02:00,61.6,60.0,29.99,SW,214,2.0,5.0,94,0.00,,,0.00,weatherlink.com 1.10,2013-03-06 07:02:00,
2013-03-06 02:17:00,61.8,60.0,29.99,SW,229,3.0,5.0,94,0.00,,,0.00,weatherlink.com 1.10,2013-03-06 07:17:00,
2013-03-06 02:32:00,61.8,60.0,29.98,SSE,160,2.0,5.0,94,0.00,,,0.00,weatherlink.com 1.10,2013-03-06 07:32:00,
2013-03-06 02:47:00,62.0,60.0,29.97,SE,143,3.0,6.0,94,0.00,,,0.00,weatherlink.com 1.10,2013-03-06 07:47:00,
2013-03-06 03:02:00,62.3,61.0,29.97,West,262,3.0,5.0,95,0.00,,,0.00,weatherlink.com 1.10,2013-03-06 08:02:00,
2013-03-06 03:17:00,62.2,61.0,29.96,SW,236,3.0,5.0,95,0.00,,,0.00,weatherlink.com 1.10,2013-03-06 08:17:00,
2013-03-06 03:32:00,62.3,61.0,29.96,SW,215,1.0,5.0,95,0.00,,,0.00,weatherlink.com 1.10,2013-03-06 08:32:00,
2013-03-06 03:47:00,62.6,61.0,29.96,WSW,253,2.0,8.0,95,0.00,,,0.00,weatherlink.com 1.10,2013-03-06 08:47:00,
2013-03-06 04:02:00,63.0,61.0,29.95,WSW,255,2.0,5.0,94,0.00,,,0.00,weatherlink.com 1.10,2013-03-06 09:02:00,
2013-03-06 04:17:00,63.0,61.0,29.95,SSW,212,3.0,7.0,94,0.00,,,0.00,weatherlink.com 1.10,2013-03-06 09:17:00,
2013-03-06 04:32:00,63.1,61.0,29.96,NNW,338,2.0,8.0,94,0.00,,,0.00,weatherlink.com 1.10,2013-03-06 09:32:00,
2013-03-06 04:47:00,63.3,62.0,29.97,WNW,285,2.0,9.0,94,0.00,,,0.00,weatherlink.com 1.10,2013-03-06 09:47:00,
2013-03-06 05:02:00,63.5,62.0,29.96,SW,228,0.0,6.0,94,0.00,,,0.00,weatherlink.com 1.10,2013-03-06 10:02:00,
2013-03-06 05:17:00,63.7,62.0,29.96,NW,314,3.0,5.0,94,0.00,,,0.00,weatherlink.com 1.10,2013-03-06 10:17:00,
2013-03-06 05:32:00,63.7,62.0,29.96,SSW,208,2.0,4.0,94,0.00,,,0.00,weatherlink.com 1.10,2013-03-06 10:32:00,
2013-03-06 05:47:00,63.7,62.0,29.97,WSW,248,0.0,4.0,95,0.00,,,0.00,weatherlink.com 1.10,2013-03-06 10:47:00,
2013-03-06 06:02:00,61.8,58.0,30.00,WNW,302,5.0,17.0,88,0.00,,,0.00,weatherlink.com 1.10,2013-03-06 11:02:00,
2013-03-06 06:17:00,59.4,56.0,30.02,WNW,302,9.0,16.0,89,0.00,,,0.00,weatherlink.com 1.10,2013-03-06 11:17:00,
2013-03-06 06:47:00,57.5,55.0,30.02,WNW,294,6.0,9.0,92,0.00,,,0.00,weatherlink.com 1.10,2013-03-06 11:47:00,
2013-03-06 07:02:00,56.6,54.0,30.03,North,11,3.0,11.0,91,0.00,,,0.00,weatherlink.com 1.10,2013-03-06 12:02:00,
2013-03-06 07:17:00,55.6,52.0,30.04,West,269,3.0,13.0,87,0.00,,,0.00,weatherlink.com 1.10,2013-03-06 12:17:00,
2013-03-06 07:33:00,54.6,50.0,30.05,NNW,334,6.0,11.0,84,0.00,,,0.00,weatherlink.com 1.10,2013-03-06 12:33:00,
2013-03-06 07:48:00,54.4,49.0,30.07,NW,326,3.0,13.0,82,0.00,,,0.00,weatherlink.com 1.10,2013-03-06 12:48:00,
2013-03-06 08:03:00,54.6,49.0,30.08,NW,322,12.0,12.0,82,0.00,,,0.00,weatherlink.com 1.10,2013-03-06 13:03:00,
2013-03-06 08:18:00,53.8,40.0,30.09,NNW,327,12.0,21.0,60,0.00,,,0.00,weatherlink.com 1.10,2013-03-06 13:18:00,
2013-03-06 08:33:00,53.4,40.0,30.09,NNW,339,6.0,15.0,62,0.00,,,0.00,weatherlink.com 1.10,2013-03-06 13:33:00,
2013-03-06 08:48:00,53.1,37.0,30.11,North,11,13.0,20.0,55,0.00,,,0.00,weatherlink.com 1.10,2013-03-06 13:48:00,
2013-03-06 09:03:00,53.2,38.0,30.11,NNW,330,7.0,15.0,56,0.00,,,0.00,weatherlink.com 1.10,2013-03-06 14:03:00,
2013-03-06 09:18:00,53.0,36.0,30.11,North,8,14.0,18.0,53,0.00,,,0.00,weatherlink.com 1.10,2013-03-06 14:18:00,
2013-03-06 09:34:00,53.4,36.0,30.11,NNE,20,9.0,18.0,52,0.00,,,0.00,weatherlink.com 1.10,2013-03-06 14:34:00,
2013-03-06 09:48:00,54.2,37.0,30.11,NNW,333,9.0,15.0,53,0.00,,,0.00,weatherlink.com 1.10,2013-03-06 14:48:00,
2013-03-06 10:04:00,54.7,37.0,30.11,NNW,331,8.0,16.0,51,0.00,,,0.00,weatherlink.com 1.10,2013-03-06 15:04:00,
2013-03-06 10:18:00,55.4,38.0,30.11,NNE,18,9.0,13.0,52,0.00,,,0.00,weatherlink.com 1.10,2013-03-06 15:18:00,
2013-03-06 10:33:00,56.4,39.0,30.11,WNW,284,9.0,14.0,52,0.00,,,0.00,weatherlink.com 1.10,2013-03-06 15:33:00,
2013-03-06 10:48:00,58.2,40.0,30.11,NNW,333,6.0,12.0,51,0.00,,,0.00,weatherlink.com 1.10,2013-03-06 15:48:00,
2013-03-06 11:03:00,58.5,40.0,30.11,WNW,283,7.0,14.0,50,0.00,,,0.00,weatherlink.com 1.10,2013-03-06 16:03:00,
2013-03-06 11:18:00,59.1,41.0,30.10,West,278,5.0,17.0,52,0.00,,,0.00,weatherlink.com 1.10,2013-03-06 16:18:00,
2013-03-06 11:33:00,59.4,41.0,30.09,WNW,301,5.0,15.0,51,0.00,,,0.00,weatherlink.com 1.10,2013-03-06 16:33:00,
2013-03-06 11:48:00,61.0,39.0,30.09,WNW,293,12.0,22.0,44,0.00,,,0.00,weatherlink.com 1.10,2013-03-06 16:48:00,
2013-03-06 12:03:00,61.5,38.0,30.08,WNW,287,7.0,16.0,42,0.00,,,0.00,weatherlink.com 1.10,2013-03-06 17:03:00,
2013-03-06 12:18:00,62.4,36.0,30.07,NW,314,8.0,14.0,38,0.00,,,0.00,weatherlink.com 1.10,2013-03-06 17:18:00,
2013-03-06 12:33:00,63.3,36.0,30.06,WNW,295,10.0,16.0,36,0.00,,,0.00,weatherlink.com 1.10,2013-03-06 17:33:00,
2013-03-06 12:48:00,63.8,35.0,30.05,NW,318,11.0,17.0,34,0.00,,,0.00,weatherlink.com 1.10,2013-03-06 17:48:00,
2013-03-06 13:04:00,64.5,33.0,30.04,NNW,327,7.0,15.0,31,0.00,,,0.00,weatherlink.com 1.10,2013-03-06 18:04:00,
2013-03-06 13:18:00,65.0,34.0,30.03,West,277,4.0,17.0,31,0.00,,,0.00,weatherlink.com 1.10,2013-03-06 18:18:00,
2013-03-06 13:33:00,65.2,31.0,30.02,WNW,289,8.0,20.0,28,0.00,,,0.00,weatherlink.com 1.10,2013-03-06 18:33:00,
2013-03-06 13:48:00,65.3,35.0,30.02,NW,326,12.0,18.0,32,0.00,,,0.00,weatherlink.com 1.10,2013-03-06 18:48:00,
2013-03-06 14:03:00,65.0,34.0,30.02,West,276,6.0,19.0,32,0.00,,,0.00,weatherlink.com 1.10,2013-03-06 19:03:00,
2013-03-06 14:18:00,65.1,35.0,30.02,NW,324,10.0,16.0,33,0.00,,,0.00,weatherlink.com 1.10,2013-03-06 19:18:00,
2013-03-06 14:33:00,64.6,35.0,30.02,West,270,7.0,20.0,34,0.00,,,0.00,weatherlink.com 1.10,2013-03-06 19:33:00,
2013-03-06 14:48:00,63.9,35.0,30.01,NW,307,4.0,17.0,34,0.00,,,0.00,weatherlink.com 1.10,2013-03-06 19:48:00,
2013-03-06 15:03:00,63.9,37.0,30.02,North,349,9.0,20.0,37,0.00,,,0.00,weatherlink.com 1.10,2013-03-06 20:03:00,
2013-03-06 15:18:00,62.7,33.0,30.02,WNW,302,11.0,19.0,33,0.00,,,0.00,weatherlink.com 1.10,2013-03-06 20:18:00,
2013-03-06 15:34:00,62.7,35.0,30.01,WNW,290,9.0,16.0,35,0.00,,,0.00,weatherlink.com 1.10,2013-03-06 20:34:00,
2013-03-06 15:48:00,62.4,35.0,30.02,NW,304,15.0,16.0,36,0.00,,,0.00,weatherlink.com 1.10,2013-03-06 20:48:00,
2013-03-06 16:03:00,61.5,34.0,30.02,NW,304,14.0,15.0,36,0.00,,,0.00,weatherlink.com 1.10,2013-03-06 21:03:00,
2013-03-06 16:19:00,61.0,31.0,30.02,NW,307,10.0,17.0,32,0.00,,,0.00,weatherlink.com 1.10,2013-03-06 21:19:00,
2013-03-06 16:34:00,61.3,33.0,30.02,WNW,297,13.0,19.0,34,0.00,,,0.00,weatherlink.com 1.10,2013-03-06 21:34:00,
2013-03-06 16:49:00,60.7,33.0,30.02,West,278,10.0,16.0,36,0.00,,,0.00,weatherlink.com 1.10,2013-03-06 21:49:00,
2013-03-06 17:04:00,59.5,33.0,30.02,WNW,302,10.0,15.0,37,0.00,,,0.00,weatherlink.com 1.10,2013-03-06 22:04:00,
2013-03-06 17:19:00,58.5,33.0,30.02,NW,319,7.0,18.0,39,0.00,,,0.00,weatherlink.com 1.10,2013-03-06 22:19:00,
2013-03-06 17:34:00,58.0,34.0,30.03,WSW,246,7.0,20.0,40,0.00,,,0.00,weatherlink.com 1.10,2013-03-06 22:34:00,
2013-03-06 17:49:00,57.4,35.0,30.03,WNW,300,7.0,12.0,43,0.00,,,0.00,weatherlink.com 1.10,2013-03-06 22:49:00,
2013-03-06 18:04:00,56.5,36.0,30.04,West,266,2.0,12.0,47,0.00,,,0.00,weatherlink.com 1.10,2013-03-06 23:04:00,
2013-03-06 18:19:00,55.5,35.0,30.04,NW,310,7.0,14.0,47,0.00,,,0.00,weatherlink.com 1.10,2013-03-06 23:19:00,
2013-03-06 18:34:00,54.4,35.0,30.05,NW,304,6.0,16.0,49,0.00,,,0.00,weatherlink.com 1.10,2013-03-06 23:34:00,
2013-03-06 18:49:00,53.7,37.0,30.06,WNW,298,4.0,10.0,53,0.00,,,0.00,weatherlink.com 1.10,2013-03-06 23:49:00,
2013-03-06 19:05:00,52.7,36.0,30.07,NW,326,7.0,10.0,54,0.00,,,0.00,weatherlink.com 1.10,2013-03-07 00:05:00,
2013-03-06 19:19:00,52.6,37.0,30.07,NNW,335,7.0,15.0,55,0.00,,,0.00,weatherlink.com 1.10,2013-03-07 00:19:00,
2013-03-06 19:34:00,52.0,37.0,30.07,WNW,302,4.0,10.0,57,0.00,,,0.00,weatherlink.com 1.10,2013-03-07 00:34:00,
2013-03-06 19:49:00,51.2,37.0,30.08,WSW,255,4.0,8.0,59,0.00,,,0.00,weatherlink.com 1.10,2013-03-07 00:49:00,
2013-03-06 20:04:00,50.9,38.0,30.08,West,273,2.0,7.0,61,0.00,,,0.00,weatherlink.com 1.10,2013-03-07 01:04:00,
2013-03-06 20:19:00,50.4,38.0,30.09,West,280,1.0,7.0,63,0.00,,,0.00,weatherlink.com 1.10,2013-03-07 01:19:00,
2013-03-06 20:34:00,50.1,39.0,30.09,NW,305,4.0,7.0,65,0.00,,,0.00,weatherlink.com 1.10,2013-03-07 01:34:00,
2013-03-06 20:49:00,49.7,39.0,30.09,NW,310,2.0,5.0,66,0.00,,,0.00,weatherlink.com 1.10,2013-03-07 01:49:00,
2013-03-06 21:04:00,48.9,39.0,30.10,West,274,1.0,2.0,68,0.00,,,0.00,weatherlink.com 1.10,2013-03-07 02:04:00,
2013-03-06 21:19:00,48.2,38.0,30.11,NW,309,0.0,1.0,69,0.00,,,0.00,weatherlink.com 1.10,2013-03-07 02:19:00,
2013-03-06 21:34:00,47.6,39.0,30.12,WNW,301,0.0,1.0,71,0.00,,,0.00,weatherlink.com 1.10,2013-03-07 02:34:00,
2013-03-06 21:49:00,47.3,38.0,30.13,West,270,0.0,0.0,71,0.00,,,0.00,weatherlink.com 1.10,2013-03-07 02:49:00,
2013-03-06 22:04:00,47.4,38.0,30.13,West,269,0.0,1.0,71,0.00,,,0.00,weatherlink.com 1.10,2013-03-07 03:04:00,
2013-03-06 22:19:00,47.1,38.0,30.14,NW,315,1.0,3.0,72,0.00,,,0.00,weatherlink.com 1.10,2013-03-07 03:19:00,
2013-03-06 22:34:00,47.0,39.0,30.14,NNW,329,1.0,2.0,73,0.00,,,0.00,weatherlink.com 1.10,2013-03-07 03:34:00,
2013-03-06 22:49:00,46.8,39.0,30.14,NW,318,1.0,2.0,73,0.00,,,0.00,weatherlink.com 1.10,2013-03-07 03:49:00,
2013-03-06 23:04:00,46.5,39.0,30.14,North,9,2.0,2.0,74,0.00,,,0.00,weatherlink.com 1.10,2013-03-07 04:04:00,
2013-03-06 23:19:00,47.2,39.0,30.14,NW,311,2.0,8.0,73,0.00,,,0.00,weatherlink.com 1.10,2013-03-07 04:19:00,
2013-03-06 23:34:00,48.1,38.0,30.14,NW,313,3.0,9.0,69,0.00,,,0.00,weatherlink.com 1.10,2013-03-07 04:34:00,
2013-03-06 23:49:00,49.0,37.0,30.14,NNE,24,5.0,12.0,64,0.00,,,0.00,weatherlink.com 1.10,2013-03-07 04:49:00,